{"data":{"norad_id":65026,"epoch":"2026-09-20T00:00:47.510496Z","epoch_age_seconds":168999,"freshness":"FRESH","line1":"1 65026U 25161M   26263.00054989  .00026297  00000+0  78644-3 0  9995","line2":"2 65026  53.1564 109.9505 0000892  86.1741 273.9363 15.34411125 65113","mean_motion":15.34411125,"eccentricity":8.92e-5,"inclination_deg":53.1564,"raan_deg":109.9505,"arg_perigee_deg":86.1741,"mean_anomaly_deg":273.9363,"bstar":0.00078644,"rev_number":6511,"period_min":93.847077653325,"perigee_km":462.05997456243,"apogee_km":463.28037456237,"semimajor_km":6840.8071745624,"source":"CELESTRAK","updated_at":"2026-09-21T09:00:35.493863Z"}}